Location: Eimen
(51.8766°N, 9.7806°E)
Time: 11:03:51
(UTC+00:00)

SAR-Lupe-4 - Pass Details

Date: 23 May 2024
Orbit: 476 x 482 km, 98.1° (Epoch: 02 April)

Event Time Altitude Azimuth Distance (km) Brightness Sun altitude
Rises 02:08:33 0° 16° (NNE) 2,555 8.6 -8.5°
Reaches altitude 10° 02:10:38 10° 20° (NNE) 1,670 7.6 -8.2°
Maximum altitude 02:14:12 65° 103° (ESE) 537 3.9 -7.9°
Drops below altitude 10° 02:17:44 10° 186° (S) 1,655 5.8 -7.5°
Enters shadow 02:18:38 - 187° (S) 2,035 6.2 -7.4°
